Flag for India Weather past 2 weeks in Ahmedabad, Gujarat, India

Now
81 °F

Partly cloudy.


Feels Like: 89 °F
Forecast: 79 / 92 °F
Wind: 7 mph from West

Location: Ahmadabad Airport

Current Time: Jul 31, 2014 at 5:13:25 AM

Latest Report: Jul 31, 2014 at 3:40 AM


Visibility: 2 mi

Pressure: 29.53 "Hg

Humidity: 100%

Dew point: 81 °F

Location of AhmedabadLocation

Historic Weather in Ahmedabad — Graph

°F

Ahmedabad temperature yesterday

Maximum temperature yesterday: 88 °F (at 4:40 PM)
Minimum temperature yesterday: 77 °F (at 2:40 AM)
Average temperature yesterday: 81 °F

Past Weeks' High & Low Weather Summary

 TemperatureHumidityPressure
High97 °F (Jul 21, 2:40 PM)100% (Jul 17, 7:40 AM)29.74 "Hg (Jul 17, 7:40 AM)
Low75 °F (Jul 24, 10:40 PM)44% (Jul 21, 4:40 PM)29.39 "Hg (Jul 16, 4:40 PM)
Average84 °F85%29.54 "Hg
* Reported Jul 16 3:40 AM — Jul 31 3:40 AM, Ahmedabad, Weather by CustomWeather, © 2014

Note: Actual official high and low records may vary slightly from our data, if they occured in-between our weather recording intervals... More about our weather records

Advertising

Ahmedabad weather history for previous 24 hours

 ConditionsComfort  
Time TempWeatherWind HumidityBarometerVisibility
3:40 AM
Jul 31
81 °FPartly cloudy.7 mph100%29.53 "Hg2 mi
2:40 AM81 °FPartly cloudy.7 mph100%29.53 "Hg2 mi
1:40 AM81 °FPartly cloudy.7 mph100%29.53 "Hg2 mi
12:40 AM81 °FPassing clouds.7 mph100%29.56 "Hg2 mi
11:40 PM
Jul 30
81 °FPassing clouds.5 mph100%29.56 "Hg2 mi
10:40 PM81 °FPassing clouds.2 mph100%29.56 "Hg2 mi
9:40 PM81 °FFog.3 mph100%29.56 "Hg2 mi
8:40 PM82 °FFog.9 mph94%29.53 "Hg2 mi
7:40 PM82 °FDrizzle. Broken clouds.5 mph100%29.50 "Hg2 mi
6:40 PM82 °FLight rain. Passing clouds.6 mph100%29.50 "Hg1 mi
5:40 PM88 °FHaze.3 mph84%29.47 "Hg3 mi
4:40 PM88 °FBroken clouds.8 mph79%29.47 "Hg3 mi
3:40 PM86 °FBroken clouds.9 mph84%29.50 "Hg3 mi
2:40 PM86 °FBroken clouds.9 mph84%29.50 "Hg2 mi
1:40 PM84 °FBroken clouds.13 mph89%29.53 "Hg2 mi
12:40 PM82 °FFog.8 mph94%29.56 "Hg2 mi
11:40 AM81 °FFog.6 mph100%29.59 "Hg2 mi
9:40 AM79 °FLight rain. More clouds than sun.7 mph100%29.59 "Hg1 mi
8:40 AM79 °FLight rain. More clouds than sun.9 mph100%29.56 "Hg1 mi
6:40 AM77 °FRain. More clouds than sun.3 mph100%29.56 "Hg1 mi
5:40 AM79 °FRain. Mostly cloudy.6 mph100%29.53 "Hg1 mi
Weather by CustomWeather, © 2014

See weather overviewHow to use our weather pages